Regional Weather Roundup
Issued by NWS Jackson, KY

Home | Current Version | Previous Version | Graphics & Text | Print | Product List | Glossary On
Versions: 1 2 3 4 5 6 7 8 9 10 11 12 13 14 15 16 17 18 19 20 21 22 23 24 25 26 27 28 29 30 31 32 33 34 35 36 37 38 39 40 41 42 43 44 45 46 47 48 49 50
000
ASUS43 KJKL 190710
RWRJKL

EAST KENTUCKY HOURLY WEATHER ROUNDUP
NATIONAL WEATHER SERVICE JACKSON KY
200 AM EST THU JAN 19 2017

NOTE: "FAIR" INDICATES FEW OR NO CLOUDS BELOW 12,000 FEET WITH
NO SIGNIFICANT WEATHER AND/OR OBSTRUCTIONS TO VISIBILITY.

* THESE REPORTS ARE NOT UNDER NWS QUALITY CONTROL AND MAY NOT
  REPORT WEATHER SUCH AS PRECIPITATION AND FOG.

KYZ079-080-083-085-087-088-110-112-115-119-120-190800
...EASTERN KENTUCKY...

CITY           SKY/WX    TMP DP  RH WIND       PRES   REMARKS
JACKSON        PTCLDY    39  36  89 S3        30.10F
LONDON         PTCLDY    38  35  89 CALM      30.10F
SOMERSET*      PTCLDY    37  37 100 CALM      30.12S
MONTICELLO*    CLOUDY    40  39  97 W5        30.11F
WILLIAMSBURG*  MOSUNNY   39  39 100 CALM      30.11S
MIDDLESBORO*   CLOUDY    39  39 100 CALM      30.13R
HARLAN APT*    MOSUNNY   37  36  93 CALM      30.12S
PIKE CO APT*     N/A     38  38 100 SE3       30.10F
BIG SANDY APT* CLOUDY    38  38 100 CALM      30.12S
MOREHEAD APT*  CLOUDY    39  36  87 CALM      30.14R
ASHLAND*       CLOUDY    43  37  81 CALM      30.12S
$$

KYZ035-036-041-042-044-050-067-078-099-190800
...CENTRAL KENTUCKY...

CITY           SKY/WX    TMP DP  RH WIND       PRES   REMARKS
MT STERLING*   CLOUDY    34  32  93 CALM      30.14R FOG
FLEMING/MASON* MOCLDY    38  37  93 CALM      30.14S
DANVILLE*      CLOUDY    36  34  93 CALM      30.11S
LEXINGTON      PTCLDY    36  33  89 CALM      30.11F
FRANKFORT      MOCLDY    35  32  88 CALM      30.10F
LOUISVILLE     CLOUDY    41  35  79 CALM      30.10F
LEBANON*         N/A     39  37  93 E6        30.09F WCI  35
GLASGOW*       CLOUDY    41  41 100 NE3       30.08F
BOWLING GREEN  MOCLDY    43  39  86 CALM      30.09S
$$

KYZ091>093-OHZ055-061-077-WVZ005-015-034-035-042-190800
...SOUTHERN OHIO/WEST VIRGINIA...

CITY           SKY/WX    TMP DP  RH WIND       PRES   REMARKS
COVINGTON      CLOUDY    39  37  92 S5        30.11S
COLUMBUS       CLOUDY    40  36  86 SW7       30.10F
DAYTON         DRZL/FOG  36  36 100 S7        30.11R VSB 1/4 WCI  30
WILMINGTON     CLOUDY    37  36  96 S7        30.10F WCI  32
HUNTINGTON     CLOUDY    43  37  79 CALM      30.12S
CHARLESTON     CLOUDY    43  37  79 S3        30.11F
PINEVILLE*     CLOUDY    34  32  93 MISG      30.16R
BECKLEY        CLOUDY    37  35  92 CALM      30.08F
BLUEFIELD      CLOUDY    33  31  92 W5        30.08R WCI  29
LOGAN CO APT*    N/A     39  37  93 CALM      30.10S
$$

VAZ002-007-008-TNZ017-027-036-066-071-190800
...SOUTHWEST VIRGINIA/EAST TENNESSEE...

CITY           SKY/WX    TMP DP  RH WIND       PRES   REMARKS
WISE*          PTCLDY    36  36 100 S3        30.10R
JONESVILLE*      N/A     37  37 100 CALM      30.13S
ABINGDON*      CLOUDY    39  37  94 CALM      30.10S
BRISTOL        CLOUDY    38  36  92 CALM      30.11S
MORRISTOWN*    SUNNY     43  41  93 CALM      30.09R
SEVIERVILLE*   SUNNY     39  39 100 CALM      30.10R
KNOXVILLE      MOCLDY    45  41  86 CALM      30.10R
LAFOLLETTE*    SUNNY     41  41 100 CALM      30.14R
OAK RIDGE      PTCLDY    44  41  89 CALM      30.12R
CROSSVILLE     PTCLDY    41  40  96 CALM      30.08S
NASHVILLE      CLOUDY    48  43  82 NE5       30.07R
$$

...KEY TO REMARKS...
VSB - VISIBILITY IN MILES
WCI - WIND CHILL INDEX
HX  - HEAT INDEX

$$



USA.gov is the U.S. government's official web portal to all federal, state and local government web resources and services.